This demonstration page uses our WeatherBlox Daily Observations layout. Learn more.

Left ArrowRight Arrow

Hourly Observations for April 1, 2015

Temp ( °F °C ) Dew Point ( °F °C ) Humidity (%) Winds ( mph kmh ) Pressure ( in mb ) Visibility ( mi km ) Precip ( " mm )
12:53 am 00:53 Clear 58 14.4 32 0 38 38 S 12 19 29.76 1008 10 16 0.00 0.00
1:53 am 01:53 Clear 56 13.3 32 0 40 40 S 9 15 29.75 1007 10 16 0.00 0.00
2:53 am 02:53 Clear 55 12.8 33 0.6 44 44 S 10 17 29.74 1007 10 16 0.00 0.00
3:53 am 03:53 Clear 57 13.9 37 2.8 47 47 S 12 19 29.72 1007 9 14 0.00 0.00
4:53 am 04:53 Clear 57 13.9 38 3.3 49 49 S 12 19 29.72 1006 10 16 0.00 0.00
5:53 am 05:53 Clear 54 12.2 39 3.9 57 57 S 13 20 29.71 1006 9 14 0.00 0.00
6:53 am 06:53 Clear 54 12.2 41 5 62 62 S 10 17 29.70 1006 10 16 0.00 0.00
7:53 am 07:53 Sunny 55 12.8 42 5.6 62 62 S 13 20 29.70 1006 8 13 0.00 0.00
8:53 am 08:53 Sunny 59 15 43 6.1 56 56 S 10 17 29.70 1006 9 14 0.00 0.00
9:53 am 09:53 Sunny 64 18 45 7 49 49 SSW 21 33 29.65 1004 10 16 0.00 0.00
10:53 am 10:53 Sunny 70 21.1 44 6.7 39 39 SSW 20 31 29.67 1005 10 16 0.00 0.00
11:53 am 11:53 Sunny 75 23.9 44 6.7 33 33 SSW 21 33 29.63 1004 10 16 0.00 0.00
12:53 pm 12:53 Sunny 79 26.1 44 6.7 29 29 S 21 33 29.58 1002 10 16 0.00 0.00
1:53 pm 13:53 Sunny 82 27.8 44 6.7 26 26 S 21 33 29.57 1001 10 16 0.00 0.00
2:53 pm 14:53 Sunny 83 28.3 44 6.7 25 25 SSW 21 33 29.54 1000 10 16 0.00 0.00
3:53 pm 15:53 Sunny 83 28.3 44 6.7 25 25 S 24 39 29.51 999 10 16 0.00 0.00
4:53 pm 16:53 Sunny 84 28.9 45 7.2 25 25 S 21 33 29.49 999 10 16 0.00 0.00
5:53 pm 17:53 Sunny 83 28.3 45 7.2 26 26 S 17 28 29.48 998 10 16 0.00 0.00
6:53 pm 18:53 Sunny 75 24 28 -2 18 18 SSW 12 19 29.77 1008 10 16 0.00 0.00
7:53 pm 19:53 Sunny 77 25 49 9.4 37 37 SSE 12 19 29.45 997 10 16 0.00 0.00
8:15 pm 20:15 Partly Cloudy with Nearby Thunderstorms 75 23.9 48 8.9 39 39 VRB 6 9 29.41 996 10 16 0.00 0.00
8:28 pm 20:28 Mostly Cloudy with Thunderstorms 68 20 45 7 43 43 NNW 28 44 29.50 999 10 16 0.00 0.00
8:37 pm 20:37 Windy with Storms Likely 61 16.1 50 10 67 67 NW 26 43 29.56 1001 8 13 0.01 0.25
8:53 pm 20:53 Windy with Storms Likely 60 15.6 50 10 70 70 NNW 25 41 29.57 1002 5 8 0.08 2.03
9:22 pm 21:22 Cloudy with Thunderstorms 59 15 46 8 63 63 N 17 28 29.62 1003 10 16 0.00 0.00
9:31 pm 21:31 Cloudy with Nearby Thunderstorms 59 15 46 8 63 63 NE 31 50 29.53 1000 10 16 0.00 0.00
9:48 pm 21:48 Partly Cloudy 57 14 46 8 67 67 N 28 44 29.59 1002 10 16 0.00 0.00
9:53 pm 21:53 Mostly Clear 58 14.4 47 8.3 67 67 N 26 43 29.58 1002 10 16 0.01 0.25
10:10 pm 22:10 Clear with Thunderstorms 57 14 46 8 67 67 NNE 23 37 29.62 1003 10 16 0.00 0.00
10:25 pm 22:25 Clear 57 13.9 47 8.3 69 69 N 24 39 29.65 1004 10 16 0.00 0.00
10:53 pm 22:53 Mostly Cloudy 57 13.9 47 8.3 69 69 N 24 39 29.60 1003 10 16 0.00 0.00
11:33 pm 23:33 Cloudy with Light Rain 57 13.9 46 7.8 67 67 NNW 18 30 29.74 1007 10 16 0.00 0.03
11:48 pm 23:48 Cloudy with Light Rain 55 13 46 8 72 72 WNW 18 30 29.80 1009 10 16 0.00 0.03
11:53 pm 23:53 Cloudy with Light Rain 56 13.3 45 7.2 67 67 NW 16 26 29.79 1009 10 16 0.01 0.25

Powered by AerisWeather